FENGYUN 1C DEB

Satellite information

Favourite Embed

Satellite Type and Status

DEBRISIN ORBIT

Key statistics

Satellite FENGYUN 1C DEB at a glance.

Uptime

9499

Days in orbit

Revolutions

≈ 13.7

Per day

Orbit

SSO

Sun Synchronous Orbit

Inclination

98.2

Latest

Satellite identification and parameters

Extended collection of information and parameters for FENGYUN 1C DEB.

Object identification

Identified? True

Debris? True

Object name: FENGYUN 1C DEB

International designator: 1999-025GU

Object number (NORAD): 29898

Object ID (CCSDS): 29898

Country: PEOPLES REPUBLIC OF CHINA (PRC)

Current information (Y/N): Y

RCS size: SMALL

Orbital parameters

Period: 105.256 minutes

Inclination: 98.2192 deg

SMA: 7384.58 km

Apoapsis: 1329.174 km

Periapsis: 683.716 km

RAAN: 153.9437 deg

Eccentricy: 0.0437031

Argument of periapsis: 51.4674 deg

Mean anomaly: 72.6321 deg

Mean motion: 13.68088073 rev/day

Mean motion (dot): 0.0000552 rev/day2

B* drag term: 0.0033445 1/REarth

Two-line elements (TLE)

Creation date: May 11, 2025, 2:40 a.m.

Reference frame: TEME

Reference center: EARTH

Epoch: May 10, 2025, 3:04 p.m. UTC

TLE line 0: 0 FENGYUN 1C DEB

TLE line 1: 1 29898U 99025GU 25130.62799525 .00005520 00000-0 33445-2 0 9990

TLE line 2: 2 29898 98.2192 153.9437 0437031 51.4674 72.6321 13.68088073902046

Live tracking on map

Real-time ground track for satellite FENGYUN 1C DEB.

In-orbit conjunctions

A list of the most updated potential collisions computed for object FENGYUN 1C DEB.

Target Orbit TCA Probability of collision Miss distance Type
NOAA 16 DEB SSO 2024-11-13 02:33:00 0.0001639202 577.0 (m) DEBRIS
SL-8 R/B LEO 2024-09-15 08:58:13 0.0001250131 310.0 (m) ROCKET BODY

Associated space launch

Chinese polar orbiting meteorological satellite

FENGYUN 1C DEB was lifted into orbit during the mission ‘Long March 4B | Feng Yun 1C’, on board a Long March 4B space rocket.

The launch took place on May 10, 1999, 1:33 a.m. from Launch Complex 7.

For more information about the launch, click the button.

Launch to space Long March 4B | Feng Yun 1C
Long March 4B | Feng Yun 1C

Agency: N/A

Status: Launch Successful

Launch date: May 10, 1999, 1:33 a.m. UTC

Rocket: Long March 4B

Launch pad: Launch Complex 7

Location: Taiyuan Satellite Launch Center, People's Republic of China

...

Latest news about this satellite

There are no fresh news available about this satellite. Check back as we update our databases every day.


Newsletter sign-up

Weekly statistics, charts and insights to help you stay on top of the space industry.